NOAA 16 DEB, 41130

Orbit data source: Space-Track

NOAA 16 DEB, 41130 is space debris in SSO originally from a launch on Thu, 21 Sep 2000 UTC launched from the Air Force Western Test Range (AFWTR). Debris objects in space refer to the collection of defunct objects orbiting the Earth. Examples of debris include non-operational satellites, rocket bodies, and fragments generated from explosions, collisions, or faulty payload assembly.

Loading next visibility...
Identifier
41130, 2000-055BM
Orbit
SSO
Country
Flag of USUS
Related business
Manufacturer
Unknown
Mission
Spacecraft
Bus & Motor
Unknown
Mass
Unknown
Launch date (UTC)
2000-09-21 (26 years ago)
Launch vehicle
Unknown
Launch site
Air Force Western Test Range (AFWTR)
Object type
Payload
Rocket body
Debris
Shape & HBR
Unknown shape, 0.1 m
Radar Cross Section
Medium (>0.1 m² and <1 m²)

Expand to show TLE details & history
Last TLE update: 1 day ago

TLE from 1 day ago
0 NOAA 16 DEB
1 41130U 00055BM  26257.29569413  .00003059  00000-0  95402-3 0  9990
2 41130  98.9513  59.5766 0017362 243.2028 116.7384 14.41543316559656
Epoch: 2026-09-14T07:05Z
TLE epoch observation values (Epoch: 2026-09-14T07:05:47.972Z)
Latitude
-0.00004°
Longitude
-40.15131°
Altitude
761.929 km
Speed
7.47 km/s
True Right ascension
03h 58m 18s
True Declination
0° 00' 00"
Sunlit
Object was in daylight at epoch
Visualization orbit readout
Latitude
Unknown
Longitude
Unknown
Altitude
Unknown
Speed
Unknown
Apparent Right ascension
Unknown
Apparent Declination
Unknown
Sunlit
N/A
Visualization observer readout
Local Sidereal Time
03:10:42
Azimuth
Unknown
Elevation
Unknown
Doppler factor
Unknown
Orbital elements
Apogee altitude
762.922 km
Perigee altitude
738.169 km
Semi-major axis
7,128.683 km
Eccentricity
0.00174
Inclination
98.9513°
RAAN
59.5766°
Arg. of periapsis
243.2028°
True anomaly
116.91591°
Mean anomaly
116.7384°
Eccentric anomaly
116.82717°
Mean motion
3.60603 °/min
Orbital period
99.83 mins
BSTAR
0.00095402
Loading maneuver chart data...
Computing Atmospheric mass density...
Loading historical data...
Loading historical data...
Loading historical data...
Loading historical data...
Loading historical data...
Loading historical data...
Loading historical data...

Documentation

Showing up to 5 results
|